sat.trackr.live / text

‹ back to catalog

STARLINK-37937

NORAD 69944 · 2026-157B

PAYLOAD ACTIVE UNKNOWN

§ Identity

Operator
Country
US
Launch date
2026-07-09
Launch site
AFETR
Launch vehicle
Mass (kg)
RCS (m²)

Purposes: comms

External: N2YO · Heavens-Above · Gunter

§ Orbital elements

Epoch: 2026-09-19T02:59:11.533056Z

Period
93.85 min
Inclination
53.1580°
Eccentricity
0.0001165
Mean motion
15.34384990 rev/d
Perigee alt
462.0 km
Apogee alt
463.5 km
Semi-major
6,840.9 km
B*
5.1705e-4
RAAN
340.0175°
Arg perigee
90.9760°
Mean anomaly
269.1377°
Rev number
1,116

§ Raw data

STARLINK-379371 69944U 26157B   26262.12443904  .00017125  00000+0  51705-3 0  99942 69944  53.1580 340.0175 0001165  90.9760 269.1377 15.34384990 11160

JSON: /api/v1/satellites/69944 · /tle

For live sub-satellite position, see the globe view (requires WebGL).

§ Visibility from observer

Set your observer location to see the next 7 days of passes ≥ 10°. The values pass through the URL so the page stays shareable.

No JS? Fill the form by hand. The geolocation button needs JavaScript.